Aérodrome :
LOGIN :

S'inscrire | Disclaimer

   EN    FR    IT 

 










Légende :    VFR   VFR Marginal   IFR   IFR Intensif   IFR Très Intensif
Visi : 
Plafond : 
>= 8 km
>= 3000ft
5 à 8 km
1000 à 3000 ft
1500m à 5 km
500 à 1000 ft
800 à 1500m
200 à 500 ft
< 800m
< 200 ft
Symboles :   Orages  Brouillard  Fortes neiges  Fortes précipitations  Vent > 20 kt
SIGMETs :   Divers  Orages  Givrage  Turbulence  Onde Orograph.  Cendres Volcan.






- Altitude de l'aérodrome : 325 ft
- Code IATA : BES


LFRB - Brest

DERNIER METAR :
  • 290230Z AUTO 05025KT 9999 BKN027 OVC033 07/01 Q1029 BECMG 05020G35KT

METARs EXPIRÉS :
  • 290200Z AUTO 05022G32KT 9999 BKN028 BKN034 OVC120 07/03 Q1029 NOSIG
  • 290130Z AUTO 06019KT 9999 SCT038 SCT090 BKN120 07/02 Q1029 BECMG 05020G35KT
  • 290100Z AUTO 06021KT 030V090 9999 BKN033 08/02 Q1029 BECMG 05020G35KT

TAF TAF LFRB
Valide du 29 à 00h jusqu'au 30 à 06h UTC


282300Z 2900/3006 05020G35KT 9999 BKN030
PROB30
TEMPO 2918/2922 -SHRA
ATIS : +33 2 98 32 02 71



MET'MAP, la Météo Aéronautique d'un coup d'oeil ! - Copyright ORBIFLY Décembre 2007 - Disclaimer

ORBIFLY MET'MAP TEAM :

Programmation & Développement : Alexandra Zaïnal
Sur une idée originale de : Baudouin d'Aumeries
Assistance à la programmation : Marc-Olivier Méhu
Soutien technique & logistique : Manuel Goepfert

Contact : metmap@orbifly.com




SOURCES & CREDITS :

   NOAA